Regional Weather Roundup
Issued by NWS

Home | Current Version | Previous Version | Graphics & Text | Print | Product List | Glossary On
Versions: 1 2 3 4 5 6 7 8 9 10 11 12 13 14 15 16 17 18 19 20 21 22 23 24 25 26 27 28 29 30 31 32 33 34 35 36 37 38 39 40 41 42 43 44 45 46 47 48 49 50
048
ASUS45 KSLC 291810
RWRUT

UTAH REGIONAL WEATHER ROUNDUP
NATIONAL WEATHER SERVICE SALT LAKE CITY UT
1200 PM MDT SAT APR 29 2017

UTZ001>011-023>025-291900-

NORTHERN UTAH

CITY           SKY/WX    TMP DP  RH WIND       PRES   REMARKS
BRIGHAM CITY   SUNNY     49  24  38 E5        30.23S
HILL AFB       SUNNY     48  23  37 NE12      30.20R
LOGAN          SUNNY     48  29  47 N6        30.23R
OGDEN          SUNNY     50  23  34 NE13G21   30.20R
SALT LAKE CITY MOSUNNY   51  25  36 VRB7      30.20R
TOOELE VALLEY  SUNNY     48  30  49 N13G20    30.22R
WENDOVER       SUNNY     52  23  32 N12G17    30.23S
HEBER CITY     SUNNY     45  19  36 N16       30.15F
WEST JORDAN    PTSUNNY   51  34  50 N13G25    30.20R

$$

UTZ011>015-024>027-291900-

CENTRAL/NORTHEAST UTAH

CITY           SKY/WX    TMP DP  RH WIND       PRES   REMARKS
PROVO AIRPORT  SUNNY     50  26  39 NW12      30.17R
MOAB/CANYONLAN CLOUDY    51  19  28 NE16      30.05R
DELTA          MOSUNNY   50  21  32 NE3       30.17S
PRICE          SUNNY     48  20  32 NE21G31   30.09R
ROOSEVELT      SUNNY     48  18  29 E17G24    30.16R
VERNAL         MOSUNNY   46  19  34 NE26G37   30.17S

$$

UTZ013>016-019>022-027-291900-

SOUTHERN UTAH

CITY           SKY/WX    TMP DP  RH WIND       PRES   REMARKS
BRYCE CANYON   MOSUNNY   43  15  32 N20G28    30.09R
CEDAR CITY     PTSUNNY   49  25  39 N20G28    30.14R
MILFORD        MOSUNNY   50  27  40 N18G31    30.15S
ST GEORGE      CLEAR     63  23  21 S13G21    30.08F
HANKSVILLE     SUNNY     54  19  26 NE14G20   30.09S
BLANDING       PTSUNNY   44  23  43 NW15G25   30.05R

$$

REGIONAL REPORTS     COLORADO/ARIZONA

CITY           SKY/WX    TMP DP  RH WIND       PRES   REMARKS
CRAIG, CO      CLOUDY    43  15  32 NE8       30.11S
GRAND JUNCTION CLOUDY    49  20  31 N10G23    30.04R
RIFLE, CO      CLOUDY    44  18  35 MISG      30.06R
MONTROSE, CO   CLOUDY    44  30  57 VRB3      30.03R
CORTEZ, CO     CLOUDY    44  30  57 CALM      29.95S
COLORADO CITY    N/A     54  23  30 NW10G17   30.11S
PAGE, AZ       PTSUNNY   58  19  22 E7G17     30.00S
GRAND CANYON   MOSUNNY   46  19  34 N7G18     30.05R
KINGMAN, AZ    SUNNY     62  50  65 N12G26    30.08S
FLAGSTAFF, AZ  MOSUNNY   45  12  26 N13G21    30.03R

$$

REGIONAL REPORTS    NEVADA/IDAHO/WYOMING

CITY           SKY/WX    TMP DP  RH WIND       PRES   REMARKS
LAS VEGAS, NV  MOSUNNY   69  16  13 NW14G21   30.11S
ELY, NY        MOSUNNY   47  22  37 N8G17     30.22S
ELKO, NV       SUNNY     48  24  39 VRB3      30.26S
POCATELLO, ID  MOSUNNY   48  31  51 VRB3      30.24F
BURLEY, ID     SUNNY     51  28  41 VRB7      30.24F
FORT BRIDGER,  CLOUDY    33  24  68 E12       30.26S WCI  25
EVANSTON, WY   PTSUNNY   31  22  69 E16G26    30.22R WCI  20
ROCK SPRINGS,  CLOUDY    39  21  48 NE16G25   30.23S WCI  30
KEMMERER, WY     N/A     34  23  64 E8        30.23S WCI  27

$$




USA.gov is the U.S. government's official web portal to all federal, state and local government web resources and services.